Zurück zum Katalog

STARLINK-1269

AktivKommunikationVLEO
NORAD 45197·PAYLOAD·🇺🇸 United States

Gestartet Feb 17, 2020 von Cape Canaveral Space Force Station

Loading…

Nächste Überflüge (nächste 24 Stunden)

TLE

AktuellSource: CelesTrak SupGP

Epoche: Sep 14, 2026, 20:21 UTC

1 45197C 20012V   26257.84840278  .00062186  00000+0  13896-2 0  2572
2 45197  53.1509 233.7109 0003261  50.6023  73.2751 15.42896916    11

Verfolge STARLINK-1269 in Echtzeit mit AllMySat

Download on the App Store